Location: Skymont Scout Reservation
(35.4344°N, 85.8742°W)
Time: 00:16:05
(UTC-05:00)

ISS - All Passes

Search period start: 02 July 2015 00:00
Search period end: 12 July 2015 00:00
Orbit: 398 x 403 km, 51.6° (Epoch: 01 July)

Date Brightness Start Highest point End Pass type
(mag) Time Alt. Az. Time Alt. Az. Time Alt. Az.
02 Jul - 08:32:37 10° SW 08:35:49 65° SE 08:39:03 10° NE daylight
02 Jul - 10:10:33 10° WNW 10:12:31 15° NNW 10:14:27 10° N daylight
02 Jul - 15:02:57 10° NNW 15:05:30 21° NNE 15:08:06 10° E daylight
02 Jul - 16:39:00 10° WNW 16:41:58 33° SW 16:44:55 10° SSE daylight
03 Jul - 07:39:37 10° SSW 07:42:25 28° SE 07:45:17 10° ENE daylight
03 Jul - 09:16:06 10° W 09:18:49 24° NNW 09:21:32 10° NNE daylight
03 Jul - 14:10:08 10° N 14:11:47 13° NNE 14:13:29 10° ENE daylight
03 Jul - 15:45:20 10° NW 15:48:34 80° SW 15:51:47 10° SE daylight
04 Jul - 06:47:31 10° SSE 06:49:05 13° SE 06:50:46 10° E daylight
04 Jul - 08:22:05 10° WSW 08:25:13 46° NW 08:28:21 10° NE daylight
04 Jul - 14:51:55 10° NW 14:55:04 45° NE 14:58:10 10° ESE daylight
04 Jul - 16:29:30 10° W 16:31:11 13° SW 16:32:45 10° SSW daylight
05 Jul - 07:28:27 10° SW 07:31:41 79° SE 07:34:56 10° NE daylight
05 Jul - 09:06:43 10° WNW 09:08:28 13° NNW 09:10:09 10° N daylight
05 Jul - 13:58:44 10° NNW 14:01:25 24° NNE 14:04:08 10° E daylight
05 Jul - 15:34:58 10° WNW 15:37:49 28° SW 15:40:38 10° SSE daylight
06 Jul - 06:35:18 10° SSW 06:38:15 33° SE 06:41:14 10° ENE daylight
06 Jul - 08:12:06 10° W 08:14:42 22° NNW 08:17:17 10° NNE daylight
06 Jul - 13:05:47 10° N 13:07:41 15° NNE 13:09:38 10° ENE daylight
06 Jul - 14:41:10 10° NW 14:44:23 66° SW 14:47:35 10° SE daylight
07 Jul - 05:42:53 10° SSE 05:44:51 15° SE 05:46:55 10° E daylight
07 Jul - 07:17:57 10° WSW 07:21:02 39° NW 07:24:06 10° NE daylight
07 Jul - 13:47:41 10° NW 13:50:52 53° NE 13:54:02 10° ESE daylight
07 Jul - 15:25:51 10° WSW 15:26:56 11° SW 15:27:54 10° SW daylight
08 Jul - 06:24:13 10° SW 06:27:27 87° NW 06:30:43 10° NE daylight
08 Jul - 08:02:50 10° NW 08:04:18 12° NNW 08:05:42 10° N daylight
08 Jul - 12:54:24 10° NNW 12:57:13 27° NE 13:00:03 10° E daylight
08 Jul - 14:30:51 10° WNW 14:33:33 24° SW 14:36:11 10° S daylight
09 Jul - 05:30:54 10° SSW 05:33:57 39° SE 05:37:01 10° ENE daylight
09 Jul - 07:08:01 10° W 07:10:28 19° NNW 07:12:54 10° NNE daylight
09 Jul - 12:01:21 10° NNW 12:03:27 16° NNE 12:05:36 10° ENE daylight
09 Jul - 13:36:55 10° WNW 13:40:06 54° SW 13:43:15 10° SSE daylight
10 Jul - 04:38:14 10° S 04:40:30 18° SE 04:42:52 10° E visible
10 Jul - 06:13:44 10° WSW 06:16:44 34° NW 06:19:45 10° NNE daylight
10 Jul - 11:08:56 10° N 11:09:35 10° NNE 11:10:17 10° NE daylight
10 Jul - 12:43:19 10° NW 12:46:33 64° NE 12:49:45 10° ESE daylight
11 Jul - 05:19:52 10° SW 05:23:06 73° NW 05:26:21 10° NE daylight
11 Jul - 06:58:53 10° NW 07:00:01 11° NNW 07:01:04 10° N daylight
11 Jul - 11:49:57 10° NNW 11:52:53 30° NE 11:55:49 10° E daylight
11 Jul - 13:26:39 10° W 13:29:09 20° SW 13:31:37 10° S daylight
